Location: Campillo
(40.8621°N, 4.2488°W)
Time: 07:02:17
(UTC+00:00)

X-37B - Pass Details

Date: 07 August 2021
Orbit: 381 x 393 km, 45.0° (Epoch: 29 August)

Event Time Altitude Azimuth Distance (km) Brightness Sun altitude
Exits shadow 04:05:33 10° 292° (WNW) 1,386 3.1 -13.0°
Maximum altitude 04:08:27 36° 1° (N) 627 2.0 -12.5°
Drops below altitude 10° 04:11:24 10° 70° (ENE) 1,398 4.8 -12.1°
Sets 04:13:33 0° 79° (E) 2,251 5.8 -11.7°
